Weather History for Dryden, TX

Change the Weather History Date:

Sunday, March 3, 2013

  Actual Average (KFST) Record (KFST)
Temperature  
Mean Temperature 58 °F -  
Max Temperature 81 °F 66 °F 88 °F (2011)
Min Temperature 36 °F 41 °F 21 °F (2014)
Degree Days  
Heating Degree Days 6    
Growing Degree Days 8 (Base 50)    
Moisture  
Dew Point 15 °F    
Average Humidity 21    
Maximum Humidity 44    
Minimum Humidity 8    
Precipitation  
Precipitation 0.00 in - - ()
Sea Level Pressure  
Sea Level Pressure 29.98 in    
Wind  
Wind Speed 5 mph (South)    
Max Wind Speed 14 mph    
Max Gust Speed 21 mph    
Averages and records for this station are not official NWS values.
T = Trace of Precipitation, MM = Missing Value Source: NWS Daily Summary

Daily Weather History Graph

Daily Weather History Graph

Search for Another Location

Airport:

Trip Planner

Search our weather history database for the weather conditions in past years. The results will help you decide how hot, cold, wet, or windy it might be!

Date:

Astronomy

Mar. 03, 2013 Rise Set
Actual Time 7:12 AM CST 6:49 PM CST
Civil Twilight 6:48 AM CST 7:13 PM CST
Nautical Twilight 6:20 AM CST 7:41 PM CST
Astronomical Twilight 5:52 AM CST 8:09 PM CST
Moon 12:03 AM CST (3/3) 10:57 AM CST (3/3)
Length of Visible Light 12h 25m
Length of Day
11h 37m
Waning Gibbous, 63% of the Moon is Illuminated
Mar 3
Waning Gibbous
Mar 4
Last Quarter
Mar 11
New
Mar 19
First Quarter
Mar 27
Full

Hourly Weather History & Observations

Time (CST) Temp. Dew Point Humidity Pressure Visibility Wind Dir Wind Speed Gust Speed Precip Events Conditions
12:53 AM 48.9 °F 15.1 °F 26% 30.17 in - West 4.6 mph - N/A   Unknown
1:53 AM 45.0 °F 15.1 °F 30% 30.16 in - Calm Calm - N/A   Unknown
2:53 AM 45.0 °F 16.0 °F 31% 30.13 in - Calm Calm - N/A   Unknown
3:53 AM 41.0 °F 17.1 °F 38% 30.12 in - Calm Calm - N/A   Unknown
4:53 AM 39.0 °F 17.1 °F 41% 30.10 in - Calm Calm - N/A   Unknown
5:53 AM 37.0 °F 16.0 °F 42% 30.11 in - Calm Calm - N/A   Unknown
6:53 AM 36.0 °F 16.0 °F 44% 30.11 in - Calm Calm - N/A   Unknown
7:53 AM 44.1 °F 18.0 °F 35% 30.10 in - Calm Calm - N/A   Unknown
8:53 AM 53.1 °F 17.1 °F 24% 30.10 in - Calm Calm - N/A   Unknown
9:53 AM 62.1 °F 15.1 °F 16% 30.09 in - SW 10.4 mph - N/A   Unknown
10:53 AM 66.0 °F 14.0 °F 13% 30.06 in - SSW 13.8 mph - N/A   Unknown
11:53 AM 71.1 °F 14.0 °F 11% 30.03 in - SSW 12.7 mph - N/A   Unknown
12:53 PM 75.0 °F 14.0 °F 10% 29.98 in - South 13.8 mph - N/A   Unknown
1:53 PM 77.0 °F 14.0 °F 9% 29.93 in - South 13.8 mph 19.6 mph N/A   Unknown
2:53 PM 78.1 °F 14.0 °F 9% 29.89 in - South 11.5 mph - N/A   Unknown
3:53 PM 80.1 °F 15.1 °F 9% 29.86 in - SSE 12.7 mph 20.7 mph N/A   Unknown
4:53 PM 81.0 °F 14.0 °F 8% 29.83 in - SSE 11.5 mph - N/A   Unknown
5:53 PM 81.0 °F 14.0 °F 8% 29.82 in - SSE 8.1 mph - N/A   Unknown
6:53 PM 71.1 °F 17.1 °F 13% 29.84 in - SSE 8.1 mph - N/A   Unknown
7:53 PM 66.9 °F 15.1 °F 14% 29.82 in - SSE 8.1 mph - N/A   Unknown
8:53 PM 63.0 °F 15.1 °F 16% 29.82 in - SSW 3.5 mph - N/A   Unknown
9:53 PM 60.1 °F 14.0 °F 16% 29.81 in - ENE 3.5 mph - N/A   Unknown
10:53 PM 54.0 °F 16.0 °F 22% 29.82 in - NNW 3.5 mph - N/A   Unknown
11:53 PM 52.0 °F 16.0 °F 24% 29.80 in - NW 4.6 mph - N/A   Unknown